Year,Month,Day,Hour,Minute,Value (Times are PST for temperature in C)
2020,08,17,00,00,22.40
2020,08,17,00,01,22.50
2020,08,17,00,02,22.50
2020,08,17,00,03,22.50
2020,08,17,00,04,22.50
2020,08,17,00,05,22.40
2020,08,17,00,06,22.40
2020,08,17,00,07,22.40
2020,08,17,00,08,22.30
2020,08,17,00,09,22.30
2020,08,17,00,10,22.30
2020,08,17,00,11,22.30
2020,08,17,00,12,22.20
2020,08,17,00,13,22.20
2020,08,17,00,14,22.20
2020,08,17,00,15,22.20
2020,08,17,00,16,22.10
2020,08,17,00,17,22.10
2020,08,17,00,18,22.10
2020,08,17,00,19,22.00
2020,08,17,00,20,22.00
2020,08,17,00,21,21.90
2020,08,17,00,22,21.90
2020,08,17,00,23,21.80
2020,08,17,00,24,21.80
2020,08,17,00,25,21.80
2020,08,17,00,26,21.70
2020,08,17,00,27,21.70
2020,08,17,00,28,21.60
2020,08,17,00,29,21.50
2020,08,17,00,30,21.40
2020,08,17,00,31,21.40
2020,08,17,00,32,21.30
2020,08,17,00,33,21.30
2020,08,17,00,34,21.20
2020,08,17,00,35,21.20
2020,08,17,00,36,21.20
2020,08,17,00,37,21.10
2020,08,17,00,38,21.10
2020,08,17,00,39,21.00
2020,08,17,00,40,21.00
2020,08,17,00,41,20.90
2020,08,17,00,42,20.90
2020,08,17,00,43,20.80
2020,08,17,00,44,20.80
2020,08,17,00,45,20.70
2020,08,17,00,46,20.70
2020,08,17,00,47,20.70
2020,08,17,00,48,20.70
2020,08,17,00,49,20.60
2020,08,17,00,50,20.60
2020,08,17,00,51,20.60
2020,08,17,00,52,20.60
2020,08,17,00,53,20.70
2020,08,17,00,54,20.70
2020,08,17,00,55,20.70
2020,08,17,00,56,20.70
2020,08,17,00,57,20.70
2020,08,17,00,58,20.70
2020,08,17,00,59,20.70
2020,08,17,01,00,20.70
2020,08,17,01,01,20.60
2020,08,17,01,02,20.60
2020,08,17,01,03,20.60
2020,08,17,01,04,20.60
2020,08,17,01,05,20.50
2020,08,17,01,06,20.50
2020,08,17,01,07,20.50
2020,08,17,01,08,20.50
2020,08,17,01,09,20.60
2020,08,17,01,10,20.60
2020,08,17,01,11,20.60
2020,08,17,01,12,20.60
2020,08,17,01,13,20.60
2020,08,17,01,14,20.60
2020,08,17,01,15,20.60
2020,08,17,01,16,20.60
2020,08,17,01,17,20.50
2020,08,17,01,18,20.60
2020,08,17,01,19,20.60
2020,08,17,01,20,20.60
2020,08,17,01,21,20.50
2020,08,17,01,22,20.50
2020,08,17,01,23,20.40
2020,08,17,01,24,20.40
2020,08,17,01,25,20.40
2020,08,17,01,26,20.40
2020,08,17,01,27,20.30
2020,08,17,01,28,20.30
2020,08,17,01,29,20.40
2020,08,17,01,30,20.40
2020,08,17,01,31,20.40
2020,08,17,01,32,20.40
2020,08,17,01,33,20.40
2020,08,17,01,34,20.40
2020,08,17,01,35,20.40
2020,08,17,01,36,20.50
2020,08,17,01,37,20.50
2020,08,17,01,38,20.50
2020,08,17,01,39,20.50
2020,08,17,01,40,20.50
2020,08,17,01,41,20.40
2020,08,17,01,42,20.50
2020,08,17,01,43,20.50
2020,08,17,01,44,20.40
2020,08,17,01,45,20.40
2020,08,17,01,46,20.40
2020,08,17,01,47,20.30
2020,08,17,01,48,20.30
2020,08,17,01,49,20.30
2020,08,17,01,50,20.20
2020,08,17,01,51,20.20
2020,08,17,01,52,20.20
2020,08,17,01,53,20.20
2020,08,17,01,54,20.20
2020,08,17,01,55,20.10
2020,08,17,01,56,20.10
2020,08,17,01,57,20.10
2020,08,17,01,58,20.00
2020,08,17,01,59,20.00
2020,08,17,02,00,20.00
2020,08,17,02,01,20.00
2020,08,17,02,02,19.90
2020,08,17,02,03,19.90
2020,08,17,02,04,19.90
2020,08,17,02,05,19.90
2020,08,17,02,06,20.00
2020,08,17,02,07,20.00
2020,08,17,02,08,20.10
2020,08,17,02,09,20.10
2020,08,17,02,10,20.20
2020,08,17,02,11,20.20
2020,08,17,02,12,20.30
2020,08,17,02,13,20.30
2020,08,17,02,14,20.40
2020,08,17,02,15,20.40
2020,08,17,02,16,20.50
2020,08,17,02,17,20.50
2020,08,17,02,18,20.60
2020,08,17,02,19,20.60
2020,08,17,02,20,20.60
2020,08,17,02,21,20.60
2020,08,17,02,22,20.60
2020,08,17,02,23,20.60
2020,08,17,02,24,20.60
2020,08,17,02,25,20.60
2020,08,17,02,26,20.60
2020,08,17,02,27,20.60
2020,08,17,02,28,20.60
2020,08,17,02,29,20.50
2020,08,17,02,30,20.50
2020,08,17,02,31,20.50
2020,08,17,02,32,20.50
2020,08,17,02,33,20.50
2020,08,17,02,34,20.50
2020,08,17,02,35,20.50
2020,08,17,02,36,20.50
2020,08,17,02,37,20.50
2020,08,17,02,38,20.40
2020,08,17,02,39,20.40
2020,08,17,02,40,20.40
2020,08,17,02,41,20.40
2020,08,17,02,42,20.40
2020,08,17,02,43,20.40
2020,08,17,02,44,20.40
2020,08,17,02,45,20.30
2020,08,17,02,46,20.30
2020,08,17,02,47,20.30
2020,08,17,02,48,20.30
2020,08,17,02,49,20.30
2020,08,17,02,50,20.30
2020,08,17,02,51,20.30
2020,08,17,02,52,20.30
2020,08,17,02,53,20.30
2020,08,17,02,54,20.30
2020,08,17,02,55,20.30
2020,08,17,02,56,20.30
2020,08,17,02,57,20.30
2020,08,17,02,58,20.30
2020,08,17,02,59,20.30
2020,08,17,03,00,20.30
2020,08,17,03,01,20.30
2020,08,17,03,02,20.30
2020,08,17,03,03,20.30
2020,08,17,03,04,20.20
2020,08,17,03,05,20.20
2020,08,17,03,06,20.20
2020,08,17,03,07,20.20
2020,08,17,03,08,20.20
2020,08,17,03,09,20.20
2020,08,17,03,10,20.20
2020,08,17,03,11,20.20
2020,08,17,03,12,20.20
2020,08,17,03,13,20.10
2020,08,17,03,14,20.10
2020,08,17,03,15,20.10
2020,08,17,03,16,20.10
2020,08,17,03,17,20.10
2020,08,17,03,18,20.10
2020,08,17,03,19,20.20
2020,08,17,03,20,20.20
2020,08,17,03,21,20.20
2020,08,17,03,22,20.20
2020,08,17,03,23,20.20
2020,08,17,03,24,20.20
2020,08,17,03,25,20.20
2020,08,17,03,26,20.20
2020,08,17,03,27,20.20
2020,08,17,03,28,20.20
2020,08,17,03,29,20.20
2020,08,17,03,30,20.20
2020,08,17,03,31,20.20
2020,08,17,03,32,20.20
2020,08,17,03,33,20.20
2020,08,17,03,34,20.20
2020,08,17,03,35,20.20
2020,08,17,03,36,20.20
2020,08,17,03,37,20.20
2020,08,17,03,38,20.20
2020,08,17,03,39,20.20
2020,08,17,03,40,20.20
2020,08,17,03,41,20.20
2020,08,17,03,42,20.20
2020,08,17,03,43,20.30
2020,08,17,03,44,20.30
2020,08,17,03,45,20.30
2020,08,17,03,46,20.30
2020,08,17,03,47,20.30
2020,08,17,03,48,20.30
2020,08,17,03,49,20.30
2020,08,17,03,50,20.20
2020,08,17,03,51,20.20
2020,08,17,03,52,20.10
2020,08,17,03,53,20.00
2020,08,17,03,54,19.90
2020,08,17,03,55,19.90
2020,08,17,03,56,19.80
2020,08,17,03,57,19.70
2020,08,17,03,58,19.60
2020,08,17,03,59,19.40
2020,08,17,04,00,19.30
2020,08,17,04,01,19.20
2020,08,17,04,02,19.20
2020,08,17,04,03,19.10
2020,08,17,04,04,19.00
2020,08,17,04,05,19.00
2020,08,17,04,06,18.90
2020,08,17,04,07,18.90
2020,08,17,04,08,18.90
2020,08,17,04,09,18.90
2020,08,17,04,10,18.80
2020,08,17,04,11,18.80
2020,08,17,04,12,18.80
2020,08,17,04,13,18.80
2020,08,17,04,14,18.80
2020,08,17,04,15,18.80
2020,08,17,04,16,18.70
2020,08,17,04,17,18.70
2020,08,17,04,18,18.70
2020,08,17,04,19,18.70
2020,08,17,04,20,18.60
2020,08,17,04,21,18.60
2020,08,17,04,22,18.50
2020,08,17,04,23,18.50
2020,08,17,04,24,18.40
2020,08,17,04,25,18.40
2020,08,17,04,26,18.30
2020,08,17,04,27,18.20
2020,08,17,04,28,18.20
2020,08,17,04,29,18.20
2020,08,17,04,30,18.20
2020,08,17,04,31,18.20
2020,08,17,04,32,18.20
2020,08,17,04,33,18.10
2020,08,17,04,34,18.10
2020,08,17,04,35,18.10
2020,08,17,04,36,18.10
2020,08,17,04,37,18.10
2020,08,17,04,38,18.00
2020,08,17,04,39,18.00
2020,08,17,04,40,17.90
2020,08,17,04,41,17.90
2020,08,17,04,42,17.90
2020,08,17,04,43,17.90
2020,08,17,04,44,17.90
2020,08,17,04,45,17.90
2020,08,17,04,46,17.80
2020,08,17,04,47,17.80
2020,08,17,04,48,17.80
2020,08,17,04,49,17.90
2020,08,17,04,50,17.80
2020,08,17,04,51,17.80
2020,08,17,04,52,17.80
2020,08,17,04,53,17.80
2020,08,17,04,54,17.80
2020,08,17,04,55,17.70
2020,08,17,04,56,17.70
2020,08,17,04,57,17.70
2020,08,17,04,58,17.70
2020,08,17,04,59,17.70
2020,08,17,05,00,17.70
2020,08,17,05,01,17.70
2020,08,17,05,02,17.70
2020,08,17,05,03,17.70
2020,08,17,05,04,17.60
2020,08,17,05,05,17.60
2020,08,17,05,06,17.50
2020,08,17,05,07,17.50
2020,08,17,05,08,17.40
2020,08,17,05,09,17.40
2020,08,17,05,10,17.30
2020,08,17,05,11,17.30
2020,08,17,05,12,17.30
2020,08,17,05,13,17.30
2020,08,17,05,14,17.30
2020,08,17,05,15,17.30
2020,08,17,05,16,17.30
2020,08,17,05,17,17.30
2020,08,17,05,18,17.20
2020,08,17,05,19,17.20
2020,08,17,05,20,17.20
2020,08,17,05,21,17.20
2020,08,17,05,22,17.20
2020,08,17,05,23,17.20
2020,08,17,05,24,17.20
2020,08,17,05,25,17.20
2020,08,17,05,26,17.20
2020,08,17,05,27,17.20
2020,08,17,05,28,17.20
2020,08,17,05,29,17.20
2020,08,17,05,30,17.20
2020,08,17,05,31,17.20
2020,08,17,05,32,17.20
2020,08,17,05,33,17.20
2020,08,17,05,34,17.20
2020,08,17,05,35,17.20
2020,08,17,05,36,17.20
2020,08,17,05,37,17.20
2020,08,17,05,38,17.30
2020,08,17,05,39,17.30
2020,08,17,05,40,17.30
2020,08,17,05,41,17.30
2020,08,17,05,42,17.30
2020,08,17,05,43,17.30
2020,08,17,05,44,17.30
2020,08,17,05,45,17.30
2020,08,17,05,46,17.30
2020,08,17,05,47,17.30
2020,08,17,05,48,17.30
2020,08,17,05,49,17.40
2020,08,17,05,50,17.40
2020,08,17,05,51,17.40
2020,08,17,05,52,17.40
2020,08,17,05,53,17.40
2020,08,17,05,54,17.50
2020,08,17,05,55,17.50
2020,08,17,05,56,17.60
2020,08,17,05,57,17.60
2020,08,17,05,58,17.70
2020,08,17,05,59,17.70
2020,08,17,06,00,17.70
2020,08,17,06,01,17.80
2020,08,17,06,02,17.80
2020,08,17,06,03,17.80
2020,08,17,06,04,17.80
2020,08,17,06,05,17.90
2020,08,17,06,06,17.90
2020,08,17,06,07,17.90
2020,08,17,06,08,17.90
2020,08,17,06,09,17.90
2020,08,17,06,10,17.90
2020,08,17,06,11,17.90
2020,08,17,06,12,17.90
2020,08,17,06,13,17.90
2020,08,17,06,14,17.90
2020,08,17,06,15,17.90
2020,08,17,06,16,17.90
2020,08,17,06,17,17.90
2020,08,17,06,18,17.90
2020,08,17,06,19,17.90
2020,08,17,06,20,17.90
2020,08,17,06,21,17.90
2020,08,17,06,22,17.90
2020,08,17,06,23,17.90
2020,08,17,06,24,17.90
2020,08,17,06,25,18.00
2020,08,17,06,26,18.00
2020,08,17,06,27,18.00
2020,08,17,06,28,18.00
2020,08,17,06,29,18.00
2020,08,17,06,30,18.00
2020,08,17,06,31,18.00
2020,08,17,06,32,18.00
2020,08,17,06,33,18.10
2020,08,17,06,34,18.10
2020,08,17,06,35,18.10
2020,08,17,06,36,18.20
2020,08,17,06,37,18.20
2020,08,17,06,38,18.20
2020,08,17,06,39,18.20
2020,08,17,06,40,18.20
2020,08,17,06,41,18.20
2020,08,17,06,42,18.20
2020,08,17,06,43,18.20
2020,08,17,06,44,18.20
2020,08,17,06,45,18.30
2020,08,17,06,46,18.30
2020,08,17,06,47,18.30
2020,08,17,06,48,18.30
2020,08,17,06,49,18.40
2020,08,17,06,50,18.40
2020,08,17,06,51,18.50
2020,08,17,06,52,18.50
2020,08,17,06,53,18.60
2020,08,17,06,54,18.60
2020,08,17,06,55,18.60
2020,08,17,06,56,18.70
2020,08,17,06,57,18.70
2020,08,17,06,58,18.70
2020,08,17,06,59,18.70
2020,08,17,07,00,18.70
2020,08,17,07,01,18.70
2020,08,17,07,02,18.60
2020,08,17,07,03,18.60
2020,08,17,07,04,18.60
2020,08,17,07,05,18.60
2020,08,17,07,06,18.60
2020,08,17,07,07,18.60
2020,08,17,07,08,18.60
2020,08,17,07,09,18.70
2020,08,17,07,10,18.70
2020,08,17,07,11,18.70
2020,08,17,07,12,18.80
2020,08,17,07,13,18.80
2020,08,17,07,14,18.90
2020,08,17,07,15,18.90
2020,08,17,07,16,19.00
2020,08,17,07,17,19.00
2020,08,17,07,18,19.10
2020,08,17,07,19,19.10
2020,08,17,07,20,19.20
2020,08,17,07,21,19.20
2020,08,17,07,22,19.20
2020,08,17,07,23,19.30
2020,08,17,07,24,19.30
2020,08,17,07,25,19.40
2020,08,17,07,26,19.40
2020,08,17,07,27,19.50
2020,08,17,07,28,19.50
2020,08,17,07,29,19.60
2020,08,17,07,30,19.60
2020,08,17,07,31,19.60
2020,08,17,07,32,19.60
2020,08,17,07,33,19.60
2020,08,17,07,34,19.70
2020,08,17,07,35,19.70
2020,08,17,07,36,19.70
2020,08,17,07,37,19.70
2020,08,17,07,38,19.80
2020,08,17,07,39,19.80
2020,08,17,07,40,19.80
2020,08,17,07,41,19.80
2020,08,17,07,42,19.80
2020,08,17,07,43,19.90
2020,08,17,07,44,19.90
2020,08,17,07,45,19.90
2020,08,17,07,46,19.90
2020,08,17,07,47,19.90
2020,08,17,07,48,19.90
2020,08,17,07,49,19.90
2020,08,17,07,50,19.90
2020,08,17,07,51,19.90
2020,08,17,07,52,20.00
2020,08,17,07,53,20.00
2020,08,17,07,54,20.00
2020,08,17,07,55,20.10
2020,08,17,07,56,20.10
2020,08,17,07,57,20.10
2020,08,17,07,58,20.10
2020,08,17,07,59,20.20
2020,08,17,08,00,20.20
2020,08,17,08,01,20.20
2020,08,17,08,02,20.30
2020,08,17,08,03,20.30
2020,08,17,08,04,20.30
2020,08,17,08,05,20.40
2020,08,17,08,06,20.40
2020,08,17,08,07,20.50
2020,08,17,08,08,20.50
2020,08,17,08,09,20.60
2020,08,17,08,10,20.60
2020,08,17,08,11,20.60
2020,08,17,08,12,20.60
2020,08,17,08,13,20.60
2020,08,17,08,14,20.60
2020,08,17,08,15,20.70
2020,08,17,08,16,20.70
2020,08,17,08,17,20.70
2020,08,17,08,18,20.70
2020,08,17,08,19,20.80
2020,08,17,08,20,20.80
2020,08,17,08,21,20.90
2020,08,17,08,22,20.90
2020,08,17,08,23,20.90
2020,08,17,08,24,20.90
2020,08,17,08,25,20.90
2020,08,17,08,26,20.90
2020,08,17,08,27,21.00
2020,08,17,08,28,21.00
2020,08,17,08,29,21.10
2020,08,17,08,30,21.10
2020,08,17,08,31,21.10
2020,08,17,08,32,21.10
2020,08,17,08,33,21.10
2020,08,17,08,34,21.10
2020,08,17,08,35,21.10
2020,08,17,08,36,21.10
2020,08,17,08,37,21.10
2020,08,17,08,38,21.10
2020,08,17,08,39,21.10
2020,08,17,08,40,21.10
2020,08,17,08,41,21.10
2020,08,17,08,42,21.20
2020,08,17,08,43,21.20
2020,08,17,08,44,21.20
2020,08,17,08,45,21.20
2020,08,17,08,46,21.30
2020,08,17,08,47,21.30
2020,08,17,08,48,21.30
2020,08,17,08,49,21.40
2020,08,17,08,50,21.40
2020,08,17,08,51,21.50
2020,08,17,08,52,21.50
2020,08,17,08,53,21.50
2020,08,17,08,54,21.60
2020,08,17,08,55,21.60
2020,08,17,08,56,21.50
2020,08,17,08,57,21.50
2020,08,17,08,58,21.50
2020,08,17,08,59,21.50
2020,08,17,09,00,21.60
2020,08,17,09,01,21.60
2020,08,17,09,02,21.60
2020,08,17,09,03,21.60
2020,08,17,09,04,21.70
2020,08,17,09,05,21.70
2020,08,17,09,06,21.70
2020,08,17,09,07,21.70
2020,08,17,09,08,21.70
2020,08,17,09,09,21.70
2020,08,17,09,10,21.70
2020,08,17,09,11,21.70
2020,08,17,09,12,21.70
2020,08,17,09,13,21.70
2020,08,17,09,14,21.80
2020,08,17,09,15,21.80
2020,08,17,09,16,21.90
2020,08,17,09,17,21.90
2020,08,17,09,18,21.90
2020,08,17,09,19,21.90
2020,08,17,09,20,22.00
2020,08,17,09,21,22.10
2020,08,17,09,22,22.10
2020,08,17,09,23,22.20
2020,08,17,09,24,22.20
2020,08,17,09,25,22.20
2020,08,17,09,26,22.20
2020,08,17,09,27,22.20
2020,08,17,09,28,22.10
2020,08,17,09,29,22.10
2020,08,17,09,30,22.10
2020,08,17,09,31,22.10
2020,08,17,09,32,22.10
2020,08,17,09,33,22.10
2020,08,17,09,34,22.20
2020,08,17,09,35,22.20
2020,08,17,09,36,22.20
2020,08,17,09,37,22.20
2020,08,17,09,38,22.30
2020,08,17,09,39,22.30
2020,08,17,09,40,22.40
2020,08,17,09,41,22.50
2020,08,17,09,42,22.60
2020,08,17,09,43,22.50
2020,08,17,09,44,22.50
2020,08,17,09,45,22.40
2020,08,17,09,46,22.40
2020,08,17,09,47,22.40
2020,08,17,09,48,22.50
2020,08,17,09,49,22.50
2020,08,17,09,50,22.40
2020,08,17,09,51,22.40
2020,08,17,09,52,22.50
2020,08,17,09,53,22.50
2020,08,17,09,54,22.60
2020,08,17,09,55,22.70
2020,08,17,09,56,22.80
2020,08,17,09,57,22.80
2020,08,17,09,58,22.70
2020,08,17,09,59,22.70
2020,08,17,10,00,22.70
2020,08,17,10,01,22.70
2020,08,17,10,02,22.70
2020,08,17,10,03,22.70
2020,08,17,10,04,22.70
2020,08,17,10,05,22.70
2020,08,17,10,06,22.70
2020,08,17,10,07,22.60
2020,08,17,10,08,22.60
2020,08,17,10,09,22.60
2020,08,17,10,10,22.70
2020,08,17,10,11,22.70
2020,08,17,10,12,22.80
2020,08,17,10,13,22.80
2020,08,17,10,14,22.80
2020,08,17,10,15,22.80
2020,08,17,10,16,22.80
2020,08,17,10,17,22.90
2020,08,17,10,18,22.90
2020,08,17,10,19,23.00
2020,08,17,10,20,23.00
2020,08,17,10,21,23.10
2020,08,17,10,22,23.00
2020,08,17,10,23,23.10
2020,08,17,10,24,23.10
2020,08,17,10,25,23.10
2020,08,17,10,26,23.20
2020,08,17,10,27,23.30
2020,08,17,10,28,23.30
2020,08,17,10,29,23.30
2020,08,17,10,30,23.20
2020,08,17,10,31,23.20
2020,08,17,10,32,23.20
2020,08,17,10,33,23.20
2020,08,17,10,34,23.10
2020,08,17,10,35,23.20
2020,08,17,10,36,23.10
2020,08,17,10,37,23.10
2020,08,17,10,38,23.10
2020,08,17,10,39,23.10
2020,08,17,10,40,23.10
2020,08,17,10,41,23.10
2020,08,17,10,42,23.10
2020,08,17,10,43,23.10
2020,08,17,10,44,23.10
2020,08,17,10,45,23.20
2020,08,17,10,46,23.20
2020,08,17,10,47,23.20
2020,08,17,10,48,23.30
2020,08,17,10,49,23.30
2020,08,17,10,50,23.40
2020,08,17,10,51,23.50
2020,08,17,10,52,23.50
2020,08,17,10,53,23.60
2020,08,17,10,54,23.70
2020,08,17,10,55,23.70
2020,08,17,10,56,23.80
2020,08,17,10,57,23.80
2020,08,17,10,58,23.80
2020,08,17,10,59,23.80
2020,08,17,11,00,23.80
2020,08,17,11,01,23.80
2020,08,17,11,02,23.70
2020,08,17,11,03,23.70
2020,08,17,11,04,23.60
2020,08,17,11,05,23.70
2020,08,17,11,06,23.70
2020,08,17,11,07,23.80
2020,08,17,11,08,23.80
2020,08,17,11,09,23.80
2020,08,17,11,10,23.80
2020,08,17,11,11,23.80
2020,08,17,11,12,23.80
2020,08,17,11,13,23.80
2020,08,17,11,14,23.90
2020,08,17,11,15,23.90
2020,08,17,11,16,24.00
2020,08,17,11,17,24.00
2020,08,17,11,18,24.00
2020,08,17,11,19,24.00
2020,08,17,11,20,24.00
2020,08,17,11,21,24.10
2020,08,17,11,22,24.10
2020,08,17,11,23,24.20
2020,08,17,11,24,24.20
2020,08,17,11,25,24.20
2020,08,17,11,26,24.10
2020,08,17,11,27,24.00
2020,08,17,11,28,23.90
2020,08,17,11,29,23.90
2020,08,17,11,30,23.90
2020,08,17,11,31,23.90
2020,08,17,11,32,23.90
2020,08,17,11,33,23.90
2020,08,17,11,34,23.90
2020,08,17,11,35,24.00
2020,08,17,11,36,24.10
2020,08,17,11,37,24.10
2020,08,17,11,38,24.10
2020,08,17,11,39,24.10
2020,08,17,11,40,24.10
2020,08,17,11,41,24.00
2020,08,17,11,42,24.10
2020,08,17,11,43,24.10
2020,08,17,11,44,24.20
2020,08,17,11,45,24.20
2020,08,17,11,46,24.20
2020,08,17,11,47,24.30
2020,08,17,11,48,24.40
2020,08,17,11,49,24.40
2020,08,17,11,50,24.30
2020,08,17,11,51,24.30
2020,08,17,11,52,24.30
2020,08,17,11,53,24.30
2020,08,17,11,54,24.30
2020,08,17,11,55,24.40
2020,08,17,11,56,24.40
2020,08,17,11,57,24.30
2020,08,17,11,58,24.30
2020,08,17,11,59,24.30
2020,08,17,12,00,24.30
2020,08,17,12,01,24.30
2020,08,17,12,02,24.40
2020,08,17,12,03,24.50
2020,08,17,12,04,24.50
2020,08,17,12,05,24.50
2020,08,17,12,06,24.50
2020,08,17,12,07,24.50
2020,08,17,12,08,24.50
2020,08,17,12,09,24.60
2020,08,17,12,10,24.60
2020,08,17,12,11,24.60
2020,08,17,12,12,24.50
2020,08,17,12,13,24.50
2020,08,17,12,14,24.50
2020,08,17,12,15,24.60
2020,08,17,12,16,24.70
2020,08,17,12,17,24.80
2020,08,17,12,18,25.00
2020,08,17,12,19,25.10
2020,08,17,12,20,25.30
2020,08,17,12,21,25.40
2020,08,17,12,22,25.60
2020,08,17,12,23,25.70
2020,08,17,12,24,25.70
2020,08,17,12,25,25.70
2020,08,17,12,26,25.80
2020,08,17,12,27,25.80
2020,08,17,12,28,25.80
2020,08,17,12,29,25.60
2020,08,17,12,30,25.60
2020,08,17,12,31,25.50
2020,08,17,12,32,25.50
2020,08,17,12,33,25.50
2020,08,17,12,34,25.50
2020,08,17,12,35,25.50
2020,08,17,12,36,25.40
2020,08,17,12,37,25.30
2020,08,17,12,38,25.30
2020,08,17,12,39,25.40
2020,08,17,12,40,25.40
2020,08,17,12,41,25.30
2020,08,17,12,42,25.40
2020,08,17,12,43,25.40
2020,08,17,12,44,25.40
2020,08,17,12,45,25.40
2020,08,17,12,46,25.30
2020,08,17,12,47,25.30
2020,08,17,12,48,25.30
2020,08,17,12,49,25.40
2020,08,17,12,50,25.40
2020,08,17,12,51,25.40
2020,08,17,12,52,25.50
2020,08,17,12,53,25.50
2020,08,17,12,54,25.50
2020,08,17,12,55,25.60
2020,08,17,12,56,25.60
2020,08,17,12,57,25.60
2020,08,17,12,58,25.50
2020,08,17,12,59,25.40
2020,08,17,13,00,25.40
2020,08,17,13,01,25.40
2020,08,17,13,02,25.50
2020,08,17,13,03,25.50
2020,08,17,13,04,25.50
2020,08,17,13,05,25.50
2020,08,17,13,06,25.50
2020,08,17,13,07,25.50
2020,08,17,13,08,25.60
2020,08,17,13,09,25.60
2020,08,17,13,10,25.60
2020,08,17,13,11,25.60
2020,08,17,13,12,25.60
2020,08,17,13,13,25.60
2020,08,17,13,14,25.50
2020,08,17,13,15,25.60
2020,08,17,13,16,25.60
2020,08,17,13,17,25.70
2020,08,17,13,18,25.70
2020,08,17,13,19,25.70
2020,08,17,13,20,25.80
2020,08,17,13,21,25.80
2020,08,17,13,22,25.90
2020,08,17,13,23,25.90
2020,08,17,13,24,26.10
2020,08,17,13,25,26.20
2020,08,17,13,26,26.20
2020,08,17,13,27,26.10
2020,08,17,13,28,26.10
2020,08,17,13,29,26.10
2020,08,17,13,30,26.10
2020,08,17,13,31,26.10
2020,08,17,13,32,26.10
2020,08,17,13,33,26.00
2020,08,17,13,34,26.10
2020,08,17,13,35,26.10
2020,08,17,13,36,26.20
2020,08,17,13,37,26.20
2020,08,17,13,38,26.20
2020,08,17,13,39,26.20
2020,08,17,13,40,26.20
2020,08,17,13,41,26.10
2020,08,17,13,42,26.10
2020,08,17,13,43,26.10
2020,08,17,13,44,26.10
2020,08,17,13,45,26.20
2020,08,17,13,46,26.40
2020,08,17,13,47,26.40
2020,08,17,13,48,26.40
2020,08,17,13,49,26.40
2020,08,17,13,50,26.30
2020,08,17,13,51,26.30
2020,08,17,13,52,26.30
2020,08,17,13,53,26.30
2020,08,17,13,54,26.40
2020,08,17,13,55,26.50
2020,08,17,13,56,26.60
2020,08,17,13,57,26.70
2020,08,17,13,58,26.70
2020,08,17,13,59,26.70
2020,08,17,14,00,26.70
2020,08,17,14,01,26.60
2020,08,17,14,02,26.50
2020,08,17,14,03,26.40
2020,08,17,14,04,26.40
2020,08,17,14,05,26.50
2020,08,17,14,06,26.50
2020,08,17,14,07,26.60
2020,08,17,14,08,26.70
2020,08,17,14,09,26.70
2020,08,17,14,10,26.80
2020,08,17,14,11,26.80
2020,08,17,14,12,26.80
2020,08,17,14,13,26.80
2020,08,17,14,14,26.80
2020,08,17,14,15,26.80
2020,08,17,14,16,26.90
2020,08,17,14,17,27.00
2020,08,17,14,18,27.00
2020,08,17,14,19,26.90
2020,08,17,14,20,26.80
2020,08,17,14,21,26.70
2020,08,17,14,22,26.70
2020,08,17,14,23,26.70
2020,08,17,14,24,26.70
2020,08,17,14,25,26.70
2020,08,17,14,26,26.70
2020,08,17,14,27,26.70
2020,08,17,14,28,26.70
2020,08,17,14,29,26.70
2020,08,17,14,30,26.70
2020,08,17,14,31,26.80
2020,08,17,14,32,26.70
2020,08,17,14,33,26.80
2020,08,17,14,34,26.80
2020,08,17,14,35,26.90
2020,08,17,14,36,26.90
2020,08,17,14,37,26.80
2020,08,17,14,38,26.80
2020,08,17,14,39,26.80
2020,08,17,14,40,26.90
2020,08,17,14,41,27.00
2020,08,17,14,42,27.10
2020,08,17,14,43,27.20
2020,08,17,14,44,27.30
2020,08,17,14,45,27.30
2020,08,17,14,46,27.30
2020,08,17,14,47,27.30
2020,08,17,14,48,27.30
2020,08,17,14,49,27.30
2020,08,17,14,50,27.30
2020,08,17,14,51,27.30
2020,08,17,14,52,27.30
2020,08,17,14,53,27.30
2020,08,17,14,54,27.30
2020,08,17,14,55,27.30
2020,08,17,14,56,27.40
2020,08,17,14,57,27.40
2020,08,17,14,58,27.40
2020,08,17,14,59,27.40
2020,08,17,15,00,27.40
2020,08,17,15,01,27.40
2020,08,17,15,02,27.40
2020,08,17,15,03,27.40
2020,08,17,15,04,27.50
2020,08,17,15,05,27.40
2020,08,17,15,06,27.40
2020,08,17,15,07,27.40
2020,08,17,15,08,27.40
2020,08,17,15,09,27.40
2020,08,17,15,10,27.30
2020,08,17,15,11,27.40
2020,08,17,15,12,27.50
2020,08,17,15,13,27.50
2020,08,17,15,14,27.40
2020,08,17,15,15,27.30
2020,08,17,15,16,27.20
2020,08,17,15,17,27.10
2020,08,17,15,18,27.10
2020,08,17,15,19,27.00
2020,08,17,15,20,26.90
2020,08,17,15,21,27.00
2020,08,17,15,22,27.00
2020,08,17,15,23,27.00
2020,08,17,15,24,27.00
2020,08,17,15,25,26.90
2020,08,17,15,26,26.90
2020,08,17,15,27,26.90
2020,08,17,15,28,26.80
2020,08,17,15,29,26.80
2020,08,17,15,30,26.80
2020,08,17,15,31,26.80
2020,08,17,15,32,26.80
2020,08,17,15,33,26.80
2020,08,17,15,34,26.80
2020,08,17,15,35,26.80
2020,08,17,15,36,26.80
2020,08,17,15,37,26.80
2020,08,17,15,38,26.90
2020,08,17,15,39,26.90
2020,08,17,15,40,26.90
2020,08,17,15,41,26.80
2020,08,17,15,42,26.90
2020,08,17,15,43,27.00
2020,08,17,15,44,27.10
2020,08,17,15,45,27.10
2020,08,17,15,46,27.10
2020,08,17,15,47,27.20
2020,08,17,15,48,27.10
2020,08,17,15,49,27.10
2020,08,17,15,50,27.10
2020,08,17,15,51,27.10
2020,08,17,15,52,27.20
2020,08,17,15,53,27.30
2020,08,17,15,54,27.30
2020,08,17,15,55,27.40
2020,08,17,15,56,27.40
2020,08,17,15,57,27.40
2020,08,17,15,58,27.40
2020,08,17,15,59,27.30
2020,08,17,16,00,27.30
2020,08,17,16,01,27.30
2020,08,17,16,02,27.30
2020,08,17,16,03,27.40
2020,08,17,16,04,27.50
2020,08,17,16,05,27.60
2020,08,17,16,06,27.70
2020,08,17,16,07,27.80
2020,08,17,16,08,27.80
2020,08,17,16,09,27.80
2020,08,17,16,10,27.90
2020,08,17,16,11,27.90
2020,08,17,16,12,27.90
2020,08,17,16,13,27.90
2020,08,17,16,14,28.00
2020,08,17,16,15,28.00
2020,08,17,16,16,28.10
2020,08,17,16,17,28.20
2020,08,17,16,18,28.20
2020,08,17,16,19,28.10
2020,08,17,16,20,28.00
2020,08,17,16,21,28.10
2020,08,17,16,22,28.10
2020,08,17,16,23,28.10
2020,08,17,16,24,28.10
2020,08,17,16,25,28.10
2020,08,17,16,26,28.10
2020,08,17,16,27,28.10
2020,08,17,16,28,28.10
2020,08,17,16,29,28.20
2020,08,17,16,30,28.20
2020,08,17,16,31,28.20
2020,08,17,16,32,28.20
2020,08,17,16,33,28.10
2020,08,17,16,34,28.10
2020,08,17,16,35,28.00
2020,08,17,16,36,28.00
2020,08,17,16,37,28.00
2020,08,17,16,38,28.10
2020,08,17,16,39,28.10
2020,08,17,16,40,28.20
2020,08,17,16,41,28.20
2020,08,17,16,42,28.30
2020,08,17,16,43,28.30
2020,08,17,16,44,28.40
2020,08,17,16,45,28.40
2020,08,17,16,46,28.50
2020,08,17,16,47,28.60
2020,08,17,16,48,28.70
2020,08,17,16,49,28.70
2020,08,17,16,50,28.60
2020,08,17,16,51,28.50
2020,08,17,16,52,28.40
2020,08,17,16,53,28.30
2020,08,17,16,54,28.30
2020,08,17,16,55,28.30
2020,08,17,16,56,28.30
2020,08,17,16,57,28.40
2020,08,17,16,58,28.40
2020,08,17,16,59,28.50
2020,08,17,17,00,28.50
2020,08,17,17,01,28.60
2020,08,17,17,02,28.70
2020,08,17,17,03,28.70
2020,08,17,17,04,28.80
2020,08,17,17,05,28.80
2020,08,17,17,06,28.80
2020,08,17,17,07,28.80
2020,08,17,17,08,28.80
2020,08,17,17,09,28.70
2020,08,17,17,10,28.70
2020,08,17,17,11,28.60
2020,08,17,17,12,28.60
2020,08,17,17,13,28.60
2020,08,17,17,14,28.60
2020,08,17,17,15,28.70
2020,08,17,17,16,28.70
2020,08,17,17,17,28.70
2020,08,17,17,18,28.60
2020,08,17,17,19,28.60